Powrót do katalogu

INTEGRAL

AktywnyNaukaHEO
NORAD 27540·PAYLOAD·🇪🇺 EU

Wystrzelony Oct 17, 2002 z Baikonur Cosmodrome

Loading…

Następne Przeloty (najbliższe 24 godziny)

TLE

ŚwieżeSource: Space-Track

Epoka: Sep 13, 2026, 07:15 UTC

1 27540U 02048A   26256.30220347 -.00000076  00000-0  00000+0 0  9997
2 27540  89.1359 343.2134 8749439 257.6655 228.4760  0.37568216 26965

Śledź INTEGRAL w czasie rzeczywistym z AllMySat

Download on the App Store